Temperature
9 8 8 8 8 8 8 8 7 7 7 7 7 7 7 7 7 7 7 8 8 8 8 8 8 8 8 8 8 8 8 8 8 8 8 8 8 8 8 8 8 8 8
9 8 8 8 8 8 8 7 7 7 7 7 7 7 7 7 7 7 7 8 8 8 8 8 8 8 8 7 7 7 7 7 7 7 7 7 7 7 7 7 8 8 8
9 8 8 8 8 8 8 7 7 7 7 7 7 7 7 7 7 7 7 8 8 8 8 8 8 8 8 7 7 7 7 7 7 7 7 7 7 7 7 7 7 7 8
9 8 8 8 8 8 8 8 7 7 7 7 7 7 7 7 7 7 7 7 7 7 7 8 8 7 7 7 7 7 7 7 6 6 6 6 6 6 7 7 7 7 7
9 9 8 8 8 8 8 8 7 7 7 7 7 7 7 7 8 8 7 7 7 7 7 7 7 7 7 7 7 7 7 6 6 6 6 6 6 6 6 6 6 6 6
9 9 8 8 8 8 8 7 7 7 7 7 7 7 7 8 8 7 7 7 7 7 7 7 6 6 7 7 7 7 7 6 6 6 5 5 5 5 5 5 5 5 5
9 9 9 8 8 8 8 7 7 7 7 7 7 7 7 7 7 7 7 6 6 6 6 6 6 6 6 6 6 6 6 6 6 5 5 4 4 4 4 4 4 4 5
9 9 8 8 8 8 8 7 7 7 7 7 6 6 6 7 6 7 6 6 6 6 6 6 5 6 6 6 6 6 6 6 6 5 4 4 4 3 3 4 4 4 4
9 9 9 8 8 8 8 8 7 7 6 7 6 6 5 6 5 5 5 5 5 5 5 5 5 5 5 5 5 5 5 5 5 5 4 3 3 3 3 3 3 3 3
9 9 9 8 8 8 8 8 7 7 7 6 6 6 5 4 4 4 5 4 4 5 5 5 5 5 5 5 5 5 5 5 4 4 3 3 2 2 2 2 2 2 2
9 9 9 9 8 8 8 8 7 7 7 6 5 5 5 4 4 3 3 4 4 4 4 4 4 4 4 4 4 4 4 4 3 3 3 3 2 2 1 1 1 1 2
9 9 9 9 8 8 8 7 7 7 6 6 5 5 4 4 3 2 2 2 2 3 3 4 4 3 3 3 3 3 3 3 3 2 2 2 2 1 1 1 1 1 1
9 9 9 8 8 8 7 7 7 6 6 6 5 5 4 4 3 3 2 1 1 2 2 2 2 2 2 2 2 2 2 2 2 1 1 1 1 0 0 -0 -0 -0 -0
9 9 9 8 8 8 7 7 6 6 6 5 5 4 4 4 3 2 2 1 0 1 1 1 1 1 1 1 1 1 1 0 0 0 -0 -0 -0 -1 -1 -1 -1 -1 -1
9 9 9 8 8 7 7 6 6 6 5 5 5 4 4 3 3 2 1 0 -1 -1 -0 0 -0 0 -0 -0 0 -0 -1 -1 -1 -1 -1 -1 -2 -2 -2 -2 -2 -2 -2
9 9 8 8 7 7 7 6 6 5 5 4 4 4 3 3 2 2 1 0 -1 -2 -2 -1 -1 -1 -1 -1 -1 -1 -1 -2 -2 -2 -2 -2 -3 -3 -3 -3 -3 -3 -3
9 9 8 8 7 7 6 6 5 5 4 4 4 3 3 2 2 1 1 0 -1 -1 -2 -2 -2 -2 -2 -2 -2 -2 -2 -3 -3 -3 -3 -3 -3 -3 -4 -4 -3 -3 -3
9 8 8 7 7 6 6 5 5 4 4 4 3 3 2 2 1 1 0 -0 -1 -2 -2 -3 -2 -3 -3 -3 -3 -3 -4 -4 -4 -4 -4 -4 -4 -4 -4 -4 -4 -4 -4
8 8 7 7 6 6 5 5 4 4 4 3 3 2 2 1 1 0 -0 -1 -1 -2 -3 -3 -3 -4 -4 -4 -4 -5 -5 -5 -5 -5 -4 -4 -4 -4 -4 -4 -4 -4 -4
8 7 7 6 6 5 5 4 4 4 3 3 3 2 2 1 1 -0 -1 -1 -2 -3 -3 -4 -4 -4 -5 -5 -5 -5 -5 -5 -5 -5 -5 -5 -5 -5 -5 -4 -4 -4 -4
7 7 6 6 5 5 4 4 4 3 3 2 2 2 1 1 0 -0 -1 -2 -3 -3 -4 -4 -5 -5 -5 -5 -5 -5 -5 -5 -5 -5 -5 -5 -5 -5 -5 -5 -5 -5 -5
7 6 6 5 5 4 4 3 3 3 2 2 1 1 0 -0 -0 -1 -1 -2 -3 -4 -4 -5 -5 -5 -5 -5 -6 -6 -6 -6 -6 -6 -6 -6 -6 -6 -6 -6 -5 -5 -5
6 6 5 5 4 4 3 3 3 2 1 1 1 0 -0 -0 -1 -2 -2 -3 -3 -3 -4 -5 -5 -5 -6 -6 -6 -6 -6 -6 -6 -6 -6 -6 -6 -6 -6 -6 -6 -6 -5
6 5 5 4 4 3 3 3 2 2 1 1 0 -0 -1 -1 -2 -2 -3 -3 -4 -4 -4 -5 -5 -5 -6 -6 -6 -6 -6 -6 -6 -6 -6 -7 -6 -6 -6 -6 -6 -6 -6
5 5 4 4 3 3 3 2 2 1 0 0 -0 -1 -1 -2 -2 -3 -4 -4 -4 -5 -5 -5 -5 -6 -6 -6 -6 -6 -7 -7 -7 -7 -7 -7 -7 -7 -7 -6 -6 -6 -6
5 4 4 3 3 3 2 2 1 0 -0 -1 -1 -1 -2 -2 -3 -3 -4 -5 -5 -5 -5 -6 -6 -6 -6 -6 -6 -7 -7 -7 -8 -8 -7 -7 -7 -8 -7 -7 -6 -6 -6
Wind_Speed
7 7 6 5 5 4 4 4 4 4 5 5 5 6 7 8 8 8 7 6 8 10 11 12 12 12 12 12 13 13 13 13 14 14 14 14 14 15 15 16 16 16 16
9 7 7 6 6 5 5 5 5 5 5 6 7 8 9 9 9 9 9 7 5 6 8 9 9 9 10 11 11 12 12 13 13 14 14 15 15 15 16 16 17 17 18
10 8 6 6 6 6 6 5 5 5 5 6 7 8 8 9 9 10 8 7 5 3 4 6 7 8 9 10 11 11 12 13 13 14 14 15 15 16 16 17 17 18 18
11 9 7 6 6 5 5 5 4 5 5 6 7 7 7 8 9 8 6 4 3 2 2 5 6 7 9 10 11 12 13 14 14 15 15 16 16 17 18 18 19 19 19
11 10 7 7 7 5 5 4 4 5 5 6 6 7 7 7 7 5 4 2 1 2 3 2 3 6 9 11 12 13 14 15 16 16 17 17 18 18 19 19 20 20 21
11 10 7 7 6 5 4 4 4 4 4 5 7 7 7 6 4 3 2 1 1 2 3 4 6 6 8 11 13 14 15 16 17 18 18 19 19 20 20 21 21 21 22
11 10 7 7 6 5 5 4 4 4 4 4 6 6 5 3 3 2 2 3 3 3 4 6 8 9 10 11 11 13 16 17 18 19 19 20 20 21 22 22 23 23 23
11 10 8 6 6 5 5 4 4 3 2 2 4 5 4 2 1 3 4 4 5 5 6 8 10 11 12 11 11 13 15 17 19 20 20 21 22 22 23 23 24 24 24
11 10 9 7 6 5 5 4 4 4 3 2 2 3 3 3 5 4 4 5 6 6 8 9 11 12 12 11 11 11 15 18 20 21 22 22 23 23 24 24 25 25 25
10 10 9 8 7 5 5 4 4 3 3 3 2 3 4 4 4 5 5 5 7 9 9 9 11 11 11 11 11 13 15 18 20 22 23 23 24 25 25 26 26 26 26
9 10 9 8 7 5 5 5 4 4 3 3 3 3 4 4 6 5 8 8 8 8 8 9 10 10 10 11 11 12 17 20 22 23 23 24 25 25 26 26 27 27 27
7 9 9 8 7 6 6 5 5 5 4 4 4 4 4 4 5 6 8 11 10 9 10 9 9 9 9 11 12 14 19 21 22 22 23 24 25 26 26 27 27 28 28
8 10 9 8 7 7 6 6 5 5 5 5 5 5 5 6 6 7 8 10 11 10 8 7 7 8 10 11 13 16 20 21 21 22 24 25 25 26 27 27 28 28 29
9 11 10 9 8 8 7 6 5 5 5 5 6 6 5 6 6 6 7 8 10 9 9 10 8 9 10 12 15 19 19 20 21 23 25 25 26 26 27 28 28 28 28
9 11 10 9 8 8 7 6 5 5 5 5 6 6 6 6 6 6 7 7 7 9 11 10 8 8 11 15 17 18 19 21 23 25 25 25 26 27 27 28 28 28 28
11 11 10 9 8 7 7 6 5 5 6 6 5 7 7 6 6 6 7 8 9 10 12 10 11 14 15 16 19 20 20 23 24 24 24 25 26 27 28 28 28 28 28
12 12 11 10 9 8 7 6 6 6 7 7 7 8 8 8 7 7 7 8 9 10 14 15 13 14 16 16 17 19 20 20 20 23 25 27 28 28 28 28 28 28 27
12 11 10 10 9 8 8 7 7 7 8 8 8 8 9 8 10 9 8 10 10 11 13 17 15 14 16 16 17 17 17 18 19 23 26 27 28 28 27 27 27 27 27
12 11 10 10 9 8 8 8 7 8 8 9 9 9 10 10 11 10 10 11 10 11 12 14 15 14 14 14 16 16 17 15 18 20 23 25 26 26 27 27 27 27 26
12 11 10 9 8 8 7 7 7 8 8 9 9 10 10 11 11 12 11 12 12 12 13 13 14 14 14 15 14 14 14 14 14 16 20 22 24 25 26 26 25 25 25
11 10 10 9 8 7 7 7 7 8 9 10 10 11 11 12 14 13 12 12 12 12 12 13 14 14 14 13 13 13 15 15 16 14 15 15 15 16 18 21 23 23 23
10 10 10 9 9 7 9 11 10 9 10 11 11 12 12 13 15 17 19 19 18 16 15 14 14 15 17 16 14 14 15 16 16 12 14 15 15 16 15 16 21 24 24
11 10 10 9 9 9 11 12 13 10 11 11 12 12 10 11 14 13 15 18 19 21 21 18 17 18 18 17 17 18 16 17 17 15 15 16 15 15 14 16 22 24 24
11 10 10 9 9 9 11 12 12 12 12 12 12 13 13 13 12 13 13 14 15 16 17 16 15 17 17 17 17 17 17 17 16 14 14 15 15 14 14 14 19 20 20
10 9 9 9 9 9 11 12 12 10 10 12 12 13 14 14 16 17 15 16 17 15 17 21 22 23 25 25 20 14 13 14 15 14 12 11 13 13 14 13 13 15 16
9 8 8 9 9 9 10 12 12 9 10 11 11 12 15 16 17 18 15 16 17 16 15 15 17 18 17 18 19 14 12 13 14 12 9 8 11 11 9 9 9 10 11
Wind_Direction
192 194 203 207 218 226 232 245 258 271 281 290 291 295 300 302 302 301 299 299 305 309 311 311 312 311 311 311 311 310 309 306 303 300 298 296 293 290 289 287 285 283 281
198 202 208 212 222 229 239 253 265 277 285 290 295 297 299 300 298 298 301 300 294 309 317 320 322 324 323 322 321 320 317 315 312 309 305 301 299 296 293 290 288 286 284
203 204 210 211 220 228 238 250 258 268 280 285 288 293 297 297 298 299 302 304 308 319 342 345 345 345 343 338 333 329 325 321 317 314 309 306 302 299 297 294 291 289 287
201 202 206 213 216 219 232 246 260 268 276 285 294 300 297 297 298 303 301 299 309 332 22 20 4 358 350 341 334 329 325 320 316 312 309 306 303 300 297 294 292 290 288
198 201 208 209 203 209 226 239 257 275 286 294 300 300 298 298 302 296 290 288 313 331 340 17 350 346 341 335 329 324 319 315 312 309 306 303 300 298 296 293 291 289 287
195 200 203 202 199 209 221 234 251 264 285 298 298 295 295 299 288 282 268 239 259 305 316 331 323 323 321 323 321 318 316 313 310 306 303 301 298 296 294 292 291 288 286
191 195 195 196 200 214 222 231 249 260 274 301 298 303 293 274 274 247 250 273 277 290 296 315 320 321 314 313 310 316 316 313 309 306 303 301 298 296 293 291 289 288 286
188 191 193 194 195 203 208 214 230 255 262 289 306 312 311 274 181 256 277 284 288 288 295 307 313 313 311 310 310 311 314 313 311 308 304 302 299 297 294 293 291 289 286
185 186 192 192 190 197 202 205 216 235 252 250 279 296 306 309 318 280 276 283 288 295 300 306 307 309 307 305 306 311 315 314 311 308 305 303 301 298 295 293 291 290 288
180 181 183 184 183 188 192 196 207 220 229 243 241 253 271 288 290 301 288 281 293 296 297 302 305 306 305 305 304 306 313 314 312 309 306 304 302 299 297 295 293 291 289
174 175 175 175 178 183 186 183 191 203 220 240 246 249 255 261 258 269 290 299 297 290 296 299 299 299 303 303 304 309 313 311 309 307 306 304 302 300 298 297 295 293 290
170 174 174 176 178 179 181 185 194 205 221 230 239 244 253 259 265 266 281 296 300 301 300 294 290 293 299 302 301 307 308 307 306 306 305 304 302 300 298 296 294 292 290
174 176 175 178 178 178 180 186 197 209 220 230 241 250 254 259 270 272 279 291 296 299 298 289 283 289 294 298 302 308 305 302 303 304 303 302 301 299 297 296 294 292 290
177 173 176 178 177 177 181 191 202 213 225 234 245 250 257 262 262 262 271 288 296 295 289 290 294 289 292 298 301 304 298 298 300 301 301 300 299 298 297 295 293 292 290
168 172 175 176 177 181 188 196 213 218 228 238 245 250 256 262 261 262 264 266 275 291 297 299 299 295 298 299 299 299 298 298 300 299 298 298 297 297 296 294 293 291 289
168 171 176 179 181 186 194 204 216 224 233 240 246 253 258 263 264 260 259 261 260 269 281 288 294 295 298 296 296 297 296 298 296 295 296 297 297 296 295 294 292 291 289
172 175 178 181 186 193 199 209 220 225 236 245 246 254 261 265 266 265 264 263 264 266 275 285 290 295 296 296 298 297 297 298 297 296 297 298 298 297 295 294 292 290 290
176 178 179 184 190 196 204 215 224 230 240 249 254 258 263 265 265 268 267 268 269 270 276 286 292 295 296 297 295 295 296 296 295 296 297 297 296 296 295 294 292 291 290
176 178 182 188 194 200 208 218 228 236 244 251 256 259 263 266 269 270 271 273 274 275 276 281 289 294 295 295 296 294 294 294 295 296 297 296 295 295 295 294 293 292 292
178 181 186 192 197 203 211 219 228 238 246 251 254 256 260 262 267 273 275 275 277 279 280 282 286 291 293 294 294 295 296 295 295 297 296 295 294 295 294 292 292 292 291
181 182 186 193 200 206 211 212 223 239 249 255 255 256 257 259 264 268 271 275 277 278 281 282 285 290 292 295 295 297 295 297 295 296 296 295 297 296 296 294 292 290 290
181 185 192 198 206 214 215 221 235 247 253 257 261 263 264 261 262 266 269 272 275 278 281 282 284 286 290 293 295 295 296 296 296 298 296 296 296 294 293 292 291 292 291
185 192 199 205 216 221 219 230 239 254 258 260 264 267 268 267 269 272 275 276 275 274 273 277 281 283 289 292 294 293 291 290 291 295 298 294 295 292 293 292 293 293 292
191 198 204 212 223 227 225 237 246 254 260 262 263 266 270 273 272 275 279 277 275 275 274 274 275 279 283 287 288 289 291 290 289 288 289 290 294 295 297 296 296 296 294
195 202 209 216 227 233 229 240 249 258 260 263 265 265 267 271 273 276 279 279 280 280 278 275 275 278 282 286 288 291 291 292 293 295 294 289 294 300 299 296 295 299 300
197 202 214 223 232 241 235 240 247 256 262 267 269 267 263 266 273 276 277 280 282 285 288 288 284 283 284 286 287 282 284 287 291 294 295 292 297 306 301 296 300 306 303
Height
1559 1560 1560 1560 1560 1560 1560 1560 1559 1559 1558 1557 1555 1554 1553 1552 1550 1548 1546 1544 1542 1541 1540 1538 1538 1537 1536 1535 1534 1533 1532 1532 1531 1530 1529 1528 1527 1526 1526 1525 1524 1524 1523
1558 1558 1559 1559 1559 1559 1559 1558 1558 1557 1556 1555 1554 1552 1551 1550 1548 1546 1544 1542 1539 1538 1537 1535 1534 1533 1532 1531 1531 1530 1529 1528 1527 1526 1525 1524 1523 1522 1521 1521 1520 1519 1519
1555 1556 1557 1557 1557 1557 1557 1557 1556 1555 1554 1553 1552 1550 1548 1547 1545 1543 1541 1539 1537 1535 1534 1533 1532 1530 1529 1528 1527 1526 1525 1524 1523 1522 1521 1520 1519 1518 1517 1516 1515 1514 1514
1553 1554 1554 1555 1555 1555 1555 1555 1554 1553 1552 1551 1550 1548 1546 1544 1542 1540 1539 1537 1535 1534 1532 1531 1529 1528 1527 1525 1524 1522 1521 1520 1518 1517 1516 1515 1514 1513 1512 1511 1510 1509 1508
1551 1552 1552 1553 1553 1553 1553 1553 1552 1551 1551 1549 1547 1545 1543 1541 1539 1537 1536 1535 1533 1532 1531 1529 1527 1526 1524 1522 1521 1519 1517 1516 1514 1513 1511 1510 1509 1508 1506 1505 1504 1503 1503
1548 1549 1550 1550 1550 1551 1550 1550 1550 1548 1548 1546 1544 1542 1540 1538 1536 1535 1534 1533 1532 1530 1529 1527 1525 1523 1521 1519 1517 1515 1513 1511 1509 1508 1506 1505 1503 1502 1501 1500 1499 1498 1497
1545 1546 1547 1547 1548 1548 1548 1548 1547 1546 1545 1543 1542 1540 1538 1536 1534 1533 1533 1532 1530 1529 1527 1525 1522 1520 1517 1515 1512 1510 1508 1506 1504 1502 1501 1499 1498 1496 1495 1494 1492 1491 1490
1542 1543 1544 1545 1545 1545 1545 1545 1544 1544 1542 1541 1540 1539 1537 1537 1533 1532 1531 1530 1528 1526 1524 1522 1519 1516 1513 1510 1508 1505 1503 1501 1498 1496 1495 1493 1491 1490 1488 1487 1486 1485 1484
1539 1540 1541 1542 1542 1542 1542 1542 1541 1541 1540 1539 1538 1538 1537 1535 1533 1530 1528 1527 1525 1523 1521 1518 1515 1512 1508 1505 1502 1500 1497 1495 1492 1490 1488 1486 1484 1483 1481 1480 1478 1477 1476
1535 1537 1537 1538 1538 1539 1539 1538 1538 1538 1537 1536 1535 1535 1535 1533 1531 1528 1525 1523 1521 1518 1516 1513 1510 1507 1504 1500 1497 1494 1491 1489 1486 1483 1481 1479 1477 1475 1474 1472 1470 1469 1468
1532 1533 1534 1535 1535 1535 1536 1535 1535 1535 1534 1533 1532 1531 1530 1529 1527 1526 1521 1519 1516 1514 1511 1508 1505 1502 1499 1495 1492 1489 1486 1483 1480 1477 1474 1471 1469 1467 1465 1463 1462 1460 1459
1528 1529 1530 1531 1532 1532 1532 1532 1532 1531 1531 1530 1529 1528 1527 1526 1524 1522 1518 1515 1511 1508 1505 1502 1499 1496 1493 1490 1487 1483 1480 1476 1473 1470 1467 1464 1461 1458 1456 1454 1453 1451 1450
1523 1525 1527 1528 1528 1529 1529 1529 1528 1528 1527 1526 1526 1524 1523 1521 1520 1518 1515 1511 1507 1503 1499 1496 1493 1490 1487 1484 1481 1477 1473 1469 1466 1463 1459 1456 1453 1450 1448 1446 1444 1442 1441
1520 1522 1523 1524 1525 1525 1525 1525 1525 1524 1524 1523 1522 1520 1519 1517 1515 1513 1511 1508 1502 1499 1496 1493 1489 1486 1482 1478 1474 1470 1466 1462 1459 1456 1452 1449 1446 1443 1440 1438 1435 1433 1432
1516 1518 1519 1520 1521 1522 1522 1522 1521 1520 1520 1519 1517 1516 1514 1512 1510 1508 1506 1504 1501 1495 1490 1488 1485 1480 1477 1473 1468 1464 1460 1456 1452 1448 1445 1441 1438 1435 1432 1429 1427 1425 1423
1512 1514 1515 1516 1517 1518 1518 1518 1517 1516 1516 1514 1513 1512 1510 1508 1505 1503 1501 1498 1495 1492 1486 1481 1479 1476 1472 1467 1463 1458 1454 1449 1445 1441 1438 1434 1431 1427 1424 1421 1419 1417 1415
1507 1509 1511 1512 1513 1513 1513 1513 1513 1512 1511 1510 1508 1507 1505 1503 1500 1498 1495 1493 1490 1486 1480 1475 1473 1470 1466 1461 1456 1452 1448 1443 1439 1435 1431 1427 1423 1420 1417 1414 1411 1409 1407
1503 1505 1506 1507 1508 1509 1509 1509 1508 1508 1506 1505 1503 1501 1500 1497 1495 1492 1490 1487 1484 1481 1476 1469 1466 1463 1459 1455 1450 1446 1441 1437 1433 1429 1424 1420 1416 1412 1409 1406 1403 1401 1399
1498 1500 1502 1503 1503 1504 1504 1504 1503 1502 1501 1500 1498 1496 1494 1492 1489 1487 1484 1481 1478 1474 1470 1465 1459 1456 1452 1448 1444 1439 1435 1431 1427 1423 1418 1413 1409 1406 1402 1399 1396 1393 1391
1494 1495 1497 1498 1499 1499 1499 1499 1498 1497 1495 1494 1492 1490 1488 1485 1483 1480 1477 1474 1471 1468 1464 1459 1454 1450 1446 1442 1439 1434 1428 1425 1421 1416 1412 1407 1403 1399 1395 1391 1388 1385 1382
1489 1490 1492 1493 1493 1494 1494 1493 1492 1491 1489 1487 1485 1483 1481 1478 1476 1473 1470 1467 1464 1461 1457 1453 1448 1444 1440 1437 1433 1429 1423 1418 1414 1411 1405 1401 1397 1392 1389 1385 1381 1378 1375
1483 1485 1486 1487 1488 1488 1488 1487 1486 1485 1483 1481 1479 1476 1474 1471 1469 1466 1463 1460 1458 1455 1450 1447 1442 1438 1434 1431 1427 1423 1418 1412 1406 1405 1400 1394 1391 1386 1381 1378 1374 1371 1368
1478 1480 1481 1482 1482 1482 1482 1481 1480 1478 1476 1474 1472 1470 1467 1464 1461 1458 1455 1452 1449 1447 1444 1441 1435 1431 1428 1425 1421 1416 1412 1407 1401 1398 1394 1387 1384 1379 1375 1371 1367 1364 1361
1472 1474 1475 1476 1476 1476 1476 1475 1474 1471 1469 1467 1465 1463 1460 1457 1454 1451 1447 1443 1440 1438 1436 1432 1428 1424 1421 1418 1415 1410 1405 1399 1394 1392 1389 1382 1377 1373 1369 1365 1361 1358 1355
1467 1468 1469 1470 1470 1470 1469 1468 1467 1464 1462 1460 1457 1455 1452 1449 1446 1443 1440 1436 1432 1429 1427 1424 1421 1417 1414 1411 1408 1403 1398 1394 1388 1384 1382 1378 1372 1368 1363 1359 1356 1353 1350
1461 1463 1463 1464 1463 1463 1462 1461 1460 1457 1454 1452 1449 1447 1444 1441 1439 1436 1433 1429 1425 1421 1419 1415 1412 1409 1406 1402 1399 1396 1392 1388 1383 1378 1375 1373 1368 1364 1358 1355 1353 1350 1346